Weather in Musina

South Africa     22°19′57″S   30°01′59″E
В апреле 2022 года жителям России запретили посещать сайт meteo.paraplan.net по решению Генеральной прокуратуры. Аудитория сайта уменьшилась в 10 раз. Владельцы сайта не видят смысла в поддержке погодного сервера в таких условиях. Сайт будет закрыт в октябре.
temp.,
°C
wind,
m/s
gust,
m/s
humid.,
%
clouds,
%
prec.,
mm/h
press.,
hPa
HPBL,
m
6 october, thu
thu623:00+24ese44370 0.0 101540
02:00+23ese44430 0.0 101539
05:00+21ese45510 0.0 101663
08:00+27e56430 0.0 1017442
11:00+34ne44210 0.0 10152180
14:00+38ene44140 0.0 10103053
17:00+37e65130 0.0 10092949
20:00+30e45180 0.0 101153
7 october, fri
fri723:00+28ese46220 0.0 101275
02:00+24ese34290 0.0 101236
05:00+22se44450 0.0 101443
08:00+27e45370 0.0 1016410
11:00+36e55170 0.0 10142411
14:00+38e87130 0.0 10113299
17:00+37e1110120 0.0 10113537
20:00+31ese614160 0.0 1015235
8 october, sat
sat823:00+21ese1420710 0.0 1020879
02:00+20ese13187374 0.0 1020940
05:00+19ese111571100 0.0 10211029
08:00+19ese111466100 0.0 10241197
11:00+26e810420 0.0 10221410
14:00+32e88270 0.0 10182040
17:00+31e88280 0.0 10171830
20:00+25e510400 0.0 1019155
9 october, sun
sun923:00+23ese34480 0.0 101941
02:00+21ese33540 0.0 101825
05:00+20e34610 0.0 101944
08:00+26e57470 0.0 1020568
11:00+33e57240 0.0 10181772
14:00+37ene77120 0.0 10143437
17:00+36ese78130 0.0 10133383
20:00+29ene46190 0.0 101664
10 october, mon
mon1023:00+26ene35240 0.0 101750
02:00+23e12340 0.0 101711
05:00+22se33360 0.0 101811
08:00+29e46270 0.0 1020463
11:00+36e89150 0.0 10172871
14:00+38e9990 0.0 10133782
17:00+36e109100 0.0 10123852
20:00+30e512160 0.0 1015161